Date,TemperatureHighF,TemperatureAvgF,TemperatureLowF,DewpointHighF,DewpointAvgF,DewpointLowF,HumidityHigh,HumidityAvg,HumidityLow,PressureMaxIn,PressureMinIn,WindSpeedMaxMPH,WindSpeedAvgMPH,GustSpeedMaxMPH,PrecipitationSumIn
2013-2-1,22,19,17,17,13,8,90,77,66,30.18,29.70,18,8,25,0.00
2013-2-2,20,18,15,17,14,6,90,83,67,30.17,29.96,16,5,23,0.00
2013-2-3,23,16,1,18,12,-2,92,83,63,29.96,29.79,11,2,17,0.00
2013-2-4,20,16,11,13,10,8,89,77,64,29.97,29.86,13,5,20,0.00
2013-2-5,28,20,10,22,15,7,91,80,62,29.94,29.82,13,2,21,0.01
2013-2-6,27,22,9,24,15,5,86,74,57,30.35,29.86,14,5,21,0.00
2013-2-7,31,23,8,21,16,5,92,75,63,30.37,30.04,10,3,15,0.00
2013-2-8,34,26,18,32,24,16,93,89,79,30.13,29.75,11,4,17,0.00
2013-2-9,21,15,-3,17,12,-7,91,87,83,30.41,30.13,6,2,8,0.00
2013-2-10,40,18,-11,28,10,-14,91,75,45,30.40,29.91,8,1,10,0.28
2013-2-11,50,39,33,42,33,26,92,79,56,29.91,29.55,24,9,36,0.16
2013-2-12,34,32,30,31,27,24,89,79,72,29.95,29.70,19,9,29,0.00
2013-2-13,37,29,17,25,22,15,90,76,60,29.88,29.71,8,2,12,0.00
2013-2-14,38,31,16,36,26,14,93,85,63,29.88,29.73,15,3,26,0.13
2013-2-15,38,30,20,33,23,15,83,76,64,30.06,29.74,21,9,31,0.00
2013-2-16,28,22,12,21,16,8,98,79,55,30.06,29.90,10,2,13,0.00
2013-2-17,21,15,12,19,9,4,98,78,65,30.22,29.90,15,6,22,0.00
2013-2-18,32,20,3,22,12,-1,89,71,50,30.28,29.84,10,2,13,0.01
2013-2-19,42,32,24,38,27,18,91,81,62,29.84,29.52,23,9,36,0.43
2013-2-20,24,21,19,19,14,12,81,73,67,30.09,29.74,23,13,31,0.00
2013-2-21,23,19,15,18,14,10,94,78,70,30.40,30.07,15,6,20,0.00
2013-2-22,34,28,20,31,23,16,89,83,71,30.38,29.95,11,2,14,0.02
2013-2-23,38,34,30,32,29,25,86,82,73,29.96,29.85,12,4,17,0.00
2013-2-24,32,30,28,27,25,24,88,81,76,30.07,29.83,14,6,20,0.00
2013-2-25,35,32,25,29,27,22,90,82,74,30.21,30.07,7,2,10,0.00
2013-2-26,43,34,22,34,27,19,92,78,55,30.20,29.68,12,3,23,0.98
2013-2-27,36,35,34,34,33,32,93,92,91,29.69,29.55,11,2,20,0.45
2013-2-28,36,34,33,34,33,30,93,93,89,29.74,29.50,10,4,16,0.20